Time,TemperatureF,DewpointF,PressureIn,WindDirection,WindDirectionDegrees,WindSpeedMPH,WindSpeedGustMPH,Humidity,HourlyPrecipIn,Conditions,Clouds,dailyrainin,SoftwareType,DateUTC
2013-04-11 00:00:00,60.8,60.2,29.06,East,90,7.6,7.6,98,0.04,,,0.00,VWS V13.01,2013-04-11 05:00:00,
2013-04-11 00:01:00,60.8,60.2,29.06,East,90,10.1,10.1,98,0.04,,,0.00,VWS V13.01,2013-04-11 05:01:00,
2013-04-11 00:02:00,60.6,60.1,29.06,East,90,3.6,10.1,98,0.04,,,0.00,VWS V13.01,2013-04-11 05:02:00,
2013-04-11 00:03:00,60.6,60.1,29.06,East,90,5.8,5.8,98,0.04,,,0.00,VWS V13.01,2013-04-11 05:03:00,
2013-04-11 00:04:00,60.6,60.1,29.06,East,90,5.8,7.2,98,0.04,,,0.00,VWS V13.01,2013-04-11 05:04:00,
2013-04-11 00:05:00,60.6,60.1,29.06,East,90,5.4,9.6,98,0.04,,,0.00,VWS V13.01,2013-04-11 05:05:00,
2013-04-11 00:06:00,60.4,59.9,29.06,East,90,7.2,8.7,98,0.04,,,0.00,VWS V13.01,2013-04-11 05:06:00,
2013-04-11 00:07:00,60.4,59.9,29.06,East,90,7.6,8.7,98,0.04,,,0.00,VWS V13.01,2013-04-11 05:07:00,
2013-04-11 00:08:00,60.4,59.9,29.06,East,90,2.7,7.6,98,0.04,,,0.00,VWS V13.01,2013-04-11 05:08:00,
2013-04-11 00:09:00,60.4,59.9,29.06,East,90,3.1,4.0,98,0.04,,,0.00,VWS V13.01,2013-04-11 05:09:00,
2013-04-11 00:10:00,60.4,59.9,29.06,East,90,5.4,8.7,98,0.04,,,0.00,VWS V13.01,2013-04-11 05:10:00,
2013-04-11 00:11:00,60.4,59.9,29.06,East,90,5.8,8.7,98,0.04,,,0.00,VWS V13.01,2013-04-11 05:11:00,
2013-04-11 00:12:00,60.4,59.9,29.06,East,90,3.6,8.3,98,0.04,,,0.00,VWS V13.01,2013-04-11 05:12:00,
2013-04-11 00:13:00,60.4,59.9,29.06,ESE,112,3.6,5.8,98,0.04,,,0.00,VWS V13.01,2013-04-11 05:13:00,
2013-04-11 00:14:00,60.4,59.9,29.06,East,90,3.6,8.1,98,0.04,,,0.00,VWS V13.01,2013-04-11 05:14:00,
2013-04-11 00:15:00,60.6,60.1,29.06,East,90,3.1,5.8,98,0.04,,,0.00,VWS V13.01,2013-04-11 05:15:00,
2013-04-11 00:16:00,60.6,60.1,29.06,East,90,0.0,5.8,98,0.04,,,0.00,VWS V13.01,2013-04-11 05:16:00,
2013-04-11 00:17:00,60.6,60.1,29.06,SE,135,0.0,2.2,98,0.04,,,0.00,VWS V13.01,2013-04-11 05:17:00,
2013-04-11 00:18:00,60.6,60.1,29.06,East,90,5.4,5.8,98,0.04,,,0.00,VWS V13.01,2013-04-11 05:18:00,
2013-04-11 00:19:00,60.6,60.1,29.06,ENE,68,2.2,5.4,98,0.04,,,0.00,VWS V13.01,2013-04-11 05:19:00,
2013-04-11 00:20:00,60.6,60.1,29.06,East,90,6.7,6.7,98,0.04,,,0.00,VWS V13.01,2013-04-11 05:20:00,
2013-04-11 00:21:00,60.6,60.1,29.06,ESE,112,7.6,7.6,98,0.04,,,0.00,VWS V13.01,2013-04-11 05:21:00,
2013-04-11 00:22:00,60.4,59.9,29.06,SE,135,4.0,7.6,98,0.04,,,0.00,VWS V13.01,2013-04-11 05:22:00,
2013-04-11 00:23:00,60.4,59.9,29.06,ESE,112,0.0,4.0,98,0.04,,,0.00,VWS V13.01,2013-04-11 05:23:00,
2013-04-11 00:24:00,60.4,59.9,29.06,East,90,0.0,2.7,98,0.04,,,0.00,VWS V13.01,2013-04-11 05:24:00,
2013-04-11 00:25:00,60.4,59.9,29.06,NE,45,6.7,6.7,98,0.04,,,0.00,VWS V13.01,2013-04-11 05:25:00,
2013-04-11 00:26:00,60.4,59.9,29.06,East,90,2.2,7.2,98,0.04,,,0.00,VWS V13.01,2013-04-11 05:26:00,
2013-04-11 00:27:00,60.4,59.9,29.06,ESE,112,0.0,2.2,98,0.04,,,0.00,VWS V13.01,2013-04-11 05:27:00,
2013-04-11 00:28:00,60.4,59.9,29.06,SE,135,0.0,0.0,98,0.04,,,0.00,VWS V13.01,2013-04-11 05:28:00,
2013-04-11 00:29:00,60.4,59.9,29.06,ESE,112,4.9,4.9,98,0.04,,,0.00,VWS V13.01,2013-04-11 05:29:00,
2013-04-11 00:30:00,60.4,59.9,29.06,East,90,2.7,4.9,98,0.04,,,0.00,VWS V13.01,2013-04-11 05:30:00,
2013-04-11 00:31:00,60.4,59.9,29.09,ESE,112,0.0,2.7,98,0.04,,,0.00,VWS V13.01,2013-04-11 05:31:00,
2013-04-11 00:32:00,60.4,59.9,29.09,ESE,112,0.0,0.0,98,0.04,,,0.00,VWS V13.01,2013-04-11 05:32:00,
2013-04-11 00:33:00,60.4,59.9,29.09,East,90,0.0,0.0,98,0.04,,,0.00,VWS V13.01,2013-04-11 05:33:00,
2013-04-11 00:34:00,60.4,59.9,29.09,East,90,0.0,0.0,98,0.04,,,0.00,VWS V13.01,2013-04-11 05:34:00,
2013-04-11 00:35:00,60.4,59.9,29.09,East,90,4.9,7.6,98,0.04,,,0.00,VWS V13.01,2013-04-11 05:35:00,
2013-04-11 00:36:00,60.4,59.9,29.09,East,90,4.0,5.4,98,0.04,,,0.00,VWS V13.01,2013-04-11 05:36:00,
2013-04-11 00:37:00,60.4,59.9,29.09,East,90,3.6,5.8,98,0.04,,,0.00,VWS V13.01,2013-04-11 05:37:00,
2013-04-11 00:38:00,60.4,59.9,29.09,East,90,4.0,4.9,98,0.04,,,0.00,VWS V13.01,2013-04-11 05:38:00,
2013-04-11 00:39:00,60.4,59.9,29.09,East,90,6.3,6.3,98,0.04,,,0.00,VWS V13.01,2013-04-11 05:39:00,
2013-04-11 00:40:00,60.4,59.9,29.09,ENE,68,4.5,6.3,98,0.04,,,0.00,VWS V13.01,2013-04-11 05:40:00,
2013-04-11 00:41:00,60.4,59.9,29.09,East,90,3.6,4.5,98,0.04,,,0.00,VWS V13.01,2013-04-11 05:41:00,
2013-04-11 00:42:00,60.4,59.9,29.09,ESE,112,0.0,3.6,98,0.04,,,0.00,VWS V13.01,2013-04-11 05:42:00,
2013-04-11 00:43:00,60.4,59.9,29.09,ESE,112,3.6,3.6,98,0.00,,,0.00,VWS V13.01,2013-04-11 05:43:00,
2013-04-11 00:44:00,60.4,59.9,29.09,SE,135,0.0,4.0,98,0.00,,,0.00,VWS V13.01,2013-04-11 05:44:00,
2013-04-11 00:45:00,60.4,59.9,29.09,ESE,112,0.0,0.0,98,0.00,,,0.00,VWS V13.01,2013-04-11 05:45:00,
2013-04-11 00:46:00,60.4,59.9,29.09,East,90,5.8,5.8,98,0.00,,,0.00,VWS V13.01,2013-04-11 05:46:00,
2013-04-11 00:47:00,60.4,59.9,29.09,ESE,112,4.0,6.3,98,0.00,,,0.00,VWS V13.01,2013-04-11 05:47:00,
2013-04-11 00:48:00,60.4,59.9,29.09,East,90,3.6,4.0,98,0.00,,,0.00,VWS V13.01,2013-04-11 05:48:00,
2013-04-11 00:49:00,60.6,60.1,29.09,ESE,112,0.0,3.6,98,0.00,,,0.00,VWS V13.01,2013-04-11 05:49:00,
2013-04-11 00:50:00,60.4,59.9,29.09,East,90,0.0,0.0,98,0.00,,,0.00,VWS V13.01,2013-04-11 05:50:00,
2013-04-11 00:51:00,60.4,59.9,29.09,East,90,0.0,0.0,98,0.00,,,0.00,VWS V13.01,2013-04-11 05:51:00,
2013-04-11 00:52:00,60.4,59.9,29.09,East,90,0.0,0.0,98,0.00,,,0.00,VWS V13.01,2013-04-11 05:52:00,
2013-04-11 00:53:00,60.4,59.9,29.09,East,90,0.0,0.0,98,0.00,,,0.00,VWS V13.01,2013-04-11 05:53:00,
2013-04-11 00:54:00,60.4,59.9,29.09,ENE,68,0.0,0.0,98,0.00,,,0.00,VWS V13.01,2013-04-11 05:54:00,
2013-04-11 00:55:00,60.4,59.9,29.09,ESE,112,0.0,0.0,98,0.00,,,0.00,VWS V13.01,2013-04-11 05:55:00,
2013-04-11 00:56:00,60.4,59.9,29.09,ESE,112,0.0,0.0,98,0.00,,,0.00,VWS V13.01,2013-04-11 05:56:00,
2013-04-11 00:57:00,60.4,59.9,29.09,East,90,0.0,0.0,98,0.00,,,0.00,VWS V13.01,2013-04-11 05:57:00,
2013-04-11 00:58:00,60.4,59.9,29.09,East,90,0.0,0.0,98,0.00,,,0.00,VWS V13.01,2013-04-11 05:58:00,
2013-04-11 00:59:00,60.4,59.9,29.09,East,90,4.0,4.0,98,0.00,,,0.00,VWS V13.01,2013-04-11 05:59:00,
2013-04-11 01:00:00,60.4,59.9,29.09,East,90,0.0,4.0,98,0.00,,,0.00,VWS V13.01,2013-04-11 06:00:00,
2013-04-11 01:01:00,60.4,59.9,29.06,East,90,0.0,2.2,98,0.00,,,0.00,VWS V13.01,2013-04-11 06:01:00,
2013-04-11 01:02:00,60.4,59.9,29.06,East,90,0.0,0.0,98,0.00,,,0.00,VWS V13.01,2013-04-11 06:02:00,
2013-04-11 01:03:00,60.4,59.9,29.06,East,90,0.0,0.0,98,0.00,,,0.00,VWS V13.01,2013-04-11 06:03:00,
2013-04-11 01:04:00,60.4,59.9,29.06,East,90,0.0,0.0,98,0.00,,,0.00,VWS V13.01,2013-04-11 06:04:00,
2013-04-11 01:05:00,60.4,59.9,29.06,ENE,68,0.0,0.0,98,0.00,,,0.00,VWS V13.01,2013-04-11 06:05:00,
2013-04-11 01:06:00,60.4,59.9,29.06,East,90,0.0,0.0,98,0.00,,,0.00,VWS V13.01,2013-04-11 06:06:00,
2013-04-11 01:07:00,60.4,59.9,29.06,East,90,0.0,0.0,98,0.00,,,0.00,VWS V13.01,2013-04-11 06:07:00,
2013-04-11 01:08:00,60.4,59.9,29.06,East,90,0.0,0.0,98,0.00,,,0.00,VWS V13.01,2013-04-11 06:08:00,
2013-04-11 01:09:00,60.4,59.9,29.06,East,90,0.0,0.0,98,0.00,,,0.00,VWS V13.01,2013-04-11 06:09:00,
2013-04-11 01:10:00,60.4,59.9,29.06,ENE,68,4.5,4.5,98,0.00,,,0.00,VWS V13.01,2013-04-11 06:10:00,
2013-04-11 01:11:00,60.3,59.7,29.06,East,90,0.0,0.0,98,0.00,,,0.00,VWS V13.01,2013-04-11 06:11:00,
2013-04-11 01:12:00,60.3,59.7,29.06,East,90,0.0,0.0,98,0.00,,,0.00,VWS V13.01,2013-04-11 06:12:00,
2013-04-11 01:13:00,60.3,59.7,29.06,East,90,0.0,0.0,98,0.00,,,0.00,VWS V13.01,2013-04-11 06:13:00,
2013-04-11 01:14:00,60.3,59.7,29.06,NE,45,0.0,0.0,98,0.00,,,0.00,VWS V13.01,2013-04-11 06:14:00,
2013-04-11 01:15:00,60.3,59.7,29.06,East,90,0.0,0.0,98,0.00,,,0.00,VWS V13.01,2013-04-11 06:15:00,
2013-04-11 01:16:00,60.3,59.7,29.06,East,90,0.0,0.0,98,0.00,,,0.00,VWS V13.01,2013-04-11 06:16:00,
2013-04-11 01:17:00,60.3,59.7,29.06,East,90,0.0,0.0,98,0.00,,,0.00,VWS V13.01,2013-04-11 06:17:00,
2013-04-11 01:18:00,60.3,59.7,29.06,East,90,0.0,0.0,98,0.00,,,0.00,VWS V13.01,2013-04-11 06:18:00,
2013-04-11 01:19:00,60.3,59.7,29.06,East,90,0.0,0.0,98,0.00,,,0.00,VWS V13.01,2013-04-11 06:19:00,
2013-04-11 01:20:00,60.3,59.7,29.06,East,90,0.0,0.0,98,0.00,,,0.00,VWS V13.01,2013-04-11 06:20:00,
2013-04-11 01:21:00,60.3,59.7,29.06,East,90,0.0,0.0,98,0.00,,,0.00,VWS V13.01,2013-04-11 06:21:00,
2013-04-11 01:22:00,60.3,59.7,29.06,East,90,0.0,0.0,98,0.00,,,0.00,VWS V13.01,2013-04-11 06:22:00,
2013-04-11 01:23:00,60.3,59.7,29.06,East,90,0.0,0.0,98,0.00,,,0.00,VWS V13.01,2013-04-11 06:23:00,
2013-04-11 01:24:00,60.3,59.7,29.06,East,90,0.0,0.0,98,0.00,,,0.00,VWS V13.01,2013-04-11 06:24:00,
2013-04-11 01:25:00,60.3,59.7,29.06,East,90,0.0,0.0,98,0.00,,,0.00,VWS V13.01,2013-04-11 06:25:00,
2013-04-11 01:26:00,60.3,59.7,29.06,East,90,0.0,0.0,98,0.00,,,0.00,VWS V13.01,2013-04-11 06:26:00,
2013-04-11 01:27:00,60.3,59.7,29.06,East,90,0.0,0.0,98,0.00,,,0.00,VWS V13.01,2013-04-11 06:27:00,
2013-04-11 01:28:00,60.3,59.7,29.06,East,90,0.0,0.0,98,0.00,,,0.00,VWS V13.01,2013-04-11 06:28:00,
2013-04-11 01:29:00,60.3,59.7,29.06,SE,135,0.0,0.0,98,0.00,,,0.00,VWS V13.01,2013-04-11 06:29:00,
2013-04-11 01:30:00,60.3,59.7,29.06,SE,135,0.0,0.0,98,0.00,,,0.00,VWS V13.01,2013-04-11 06:30:00,
2013-04-11 01:31:00,60.3,59.7,29.06,SE,135,0.0,0.0,98,0.04,,,0.04,VWS V13.01,2013-04-11 06:31:00,
2013-04-11 01:32:00,60.3,59.7,29.06,SE,135,0.0,0.0,98,0.04,,,0.04,VWS V13.01,2013-04-11 06:32:00,
2013-04-11 01:33:00,60.3,59.7,29.06,South,180,0.0,0.0,98,0.04,,,0.04,VWS V13.01,2013-04-11 06:33:00,
2013-04-11 01:34:00,60.3,59.7,29.06,South,180,0.0,0.0,98,0.04,,,0.04,VWS V13.01,2013-04-11 06:34:00,
2013-04-11 01:35:00,60.3,59.7,29.06,South,180,0.0,0.0,98,0.04,,,0.04,VWS V13.01,2013-04-11 06:35:00,
2013-04-11 01:36:00,60.3,59.7,29.06,SW,225,0.0,0.0,98,0.04,,,0.04,VWS V13.01,2013-04-11 06:36:00,
2013-04-11 01:37:00,60.4,59.9,29.06,West,270,0.0,0.0,98,0.09,,,0.09,VWS V13.01,2013-04-11 06:37:00,
2013-04-11 01:38:00,60.4,59.9,29.06,SW,225,4.0,4.0,98,0.09,,,0.09,VWS V13.01,2013-04-11 06:38:00,
2013-04-11 01:39:00,60.4,59.9,29.06,West,270,10.1,10.1,98,0.09,,,0.09,VWS V13.01,2013-04-11 06:39:00,
2013-04-11 01:40:00,60.4,59.9,29.06,West,270,8.1,10.5,98,0.09,,,0.09,VWS V13.01,2013-04-11 06:40:00,
2013-04-11 01:41:00,60.4,59.9,29.06,SW,225,12.8,22.4,98,0.09,,,0.09,VWS V13.01,2013-04-11 06:41:00,
2013-04-11 01:42:00,58.6,58.1,29.06,SW,225,15.0,15.0,98,0.09,,,0.09,VWS V13.01,2013-04-11 06:42:00,
2013-04-11 01:43:00,58.5,57.9,29.06,West,270,10.5,15.0,98,0.09,,,0.09,VWS V13.01,2013-04-11 06:43:00,
2013-04-11 01:44:00,58.1,57.5,29.06,West,270,8.7,14.5,98,0.09,,,0.09,VWS V13.01,2013-04-11 06:44:00,
2013-04-11 01:45:00,58.1,57.5,29.06,SW,225,8.1,12.3,98,0.09,,,0.09,VWS V13.01,2013-04-11 06:45:00,
2013-04-11 01:46:00,58.1,57.5,29.09,SW,225,12.8,12.8,98,0.09,,,0.09,VWS V13.01,2013-04-11 06:46:00,
2013-04-11 01:47:00,57.6,57.0,29.09,West,270,5.4,12.8,98,0.09,,,0.09,VWS V13.01,2013-04-11 06:47:00,
2013-04-11 01:48:00,57.6,57.0,29.09,SW,225,11.0,11.0,98,0.09,,,0.09,VWS V13.01,2013-04-11 06:48:00,
2013-04-11 01:49:00,57.4,56.8,29.09,West,270,15.4,15.4,98,0.09,,,0.09,VWS V13.01,2013-04-11 06:49:00,
2013-04-11 01:50:00,56.8,56.3,29.09,West,270,9.6,15.4,98,0.09,,,0.09,VWS V13.01,2013-04-11 06:50:00,
2013-04-11 01:51:00,56.7,56.1,29.09,West,270,12.8,15.0,98,0.09,,,0.09,VWS V13.01,2013-04-11 06:51:00,
2013-04-11 01:52:00,56.5,55.9,29.09,West,270,12.8,12.8,98,0.09,,,0.09,VWS V13.01,2013-04-11 06:52:00,
2013-04-11 01:53:00,56.3,55.7,29.09,SW,225,13.6,13.6,98,0.09,,,0.09,VWS V13.01,2013-04-11 06:53:00,
2013-04-11 01:54:00,56.3,55.7,29.09,West,270,11.4,15.0,98,0.09,,,0.09,VWS V13.01,2013-04-11 06:54:00,
2013-04-11 01:55:00,56.1,55.6,29.09,SW,225,10.5,12.3,98,0.09,,,0.09,VWS V13.01,2013-04-11 06:55:00,
2013-04-11 01:56:00,56.1,55.6,29.09,SW,225,10.1,13.2,98,0.09,,,0.09,VWS V13.01,2013-04-11 06:56:00,
2013-04-11 01:57:00,55.9,55.4,29.09,SW,225,10.5,13.2,98,0.09,,,0.09,VWS V13.01,2013-04-11 06:57:00,
2013-04-11 01:58:00,55.9,55.4,29.09,SW,225,16.8,16.8,98,0.09,,,0.09,VWS V13.01,2013-04-11 06:58:00,
2013-04-11 01:59:00,55.8,55.2,29.09,SW,225,7.6,16.8,98,0.09,,,0.09,VWS V13.01,2013-04-11 06:59:00,
2013-04-11 02:00:00,55.8,55.2,29.09,West,270,15.0,15.0,98,0.09,,,0.09,VWS V13.01,2013-04-11 07:00:00,
2013-04-11 02:01:00,55.6,55.0,29.06,SW,225,14.5,15.0,98,0.09,,,0.09,VWS V13.01,2013-04-11 07:01:00,
2013-04-11 02:02:00,55.4,54.8,29.06,SW,225,10.1,14.5,98,0.09,,,0.09,VWS V13.01,2013-04-11 07:02:00,
2013-04-11 02:03:00,55.6,55.0,29.06,SW,225,10.5,11.0,98,0.09,,,0.09,VWS V13.01,2013-04-11 07:03:00,
2013-04-11 02:04:00,55.6,55.0,29.06,SW,225,8.3,10.5,98,0.09,,,0.09,VWS V13.01,2013-04-11 07:04:00,
2013-04-11 02:05:00,55.4,54.8,29.06,West,270,16.8,16.8,98,0.09,,,0.09,VWS V13.01,2013-04-11 07:05:00,
2013-04-11 02:06:00,55.0,54.5,29.06,West,270,11.4,16.8,98,0.09,,,0.09,VWS V13.01,2013-04-11 07:06:00,
2013-04-11 02:07:00,55.0,54.5,29.06,West,270,5.4,7.6,98,0.09,,,0.09,VWS V13.01,2013-04-11 07:07:00,
2013-04-11 02:08:00,55.0,54.5,29.06,West,270,8.1,8.3,98,0.09,,,0.09,VWS V13.01,2013-04-11 07:08:00,
2013-04-11 02:09:00,55.2,54.7,29.06,West,270,10.5,10.5,98,0.09,,,0.09,VWS V13.01,2013-04-11 07:09:00,
2013-04-11 02:10:00,55.2,54.7,29.06,West,270,7.6,12.8,98,0.09,,,0.09,VWS V13.01,2013-04-11 07:10:00,
2013-04-11 02:11:00,55.2,54.7,29.06,West,270,17.0,17.0,98,0.09,,,0.09,VWS V13.01,2013-04-11 07:11:00,
2013-04-11 02:12:00,54.7,54.1,29.06,West,270,15.0,15.0,98,0.09,,,0.09,VWS V13.01,2013-04-11 07:12:00,
2013-04-11 02:13:00,54.5,54.0,29.06,SW,225,9.6,15.0,98,0.09,,,0.09,VWS V13.01,2013-04-11 07:13:00,
2013-04-11 02:14:00,54.5,54.0,29.06,West,270,8.1,9.6,98,0.09,,,0.09,VWS V13.01,2013-04-11 07:14:00,
2013-04-11 02:15:00,54.5,54.0,29.06,SW,225,8.1,14.5,98,0.09,,,0.09,VWS V13.01,2013-04-11 07:15:00,
2013-04-11 02:16:00,54.3,53.8,29.06,West,270,7.6,10.1,98,0.09,,,0.09,VWS V13.01,2013-04-11 07:16:00,
2013-04-11 02:17:00,54.3,53.8,29.06,SW,225,8.7,10.1,98,0.09,,,0.09,VWS V13.01,2013-04-11 07:17:00,
2013-04-11 02:18:00,54.3,53.8,29.06,SW,225,10.1,10.1,98,0.09,,,0.09,VWS V13.01,2013-04-11 07:18:00,
2013-04-11 02:19:00,54.3,53.8,29.06,WNW,292,16.8,16.8,98,0.09,,,0.09,VWS V13.01,2013-04-11 07:19:00,
2013-04-11 02:20:00,54.1,53.6,29.06,West,270,10.5,16.8,98,0.09,,,0.09,VWS V13.01,2013-04-11 07:20:00,
2013-04-11 02:21:00,54.0,53.4,29.06,West,270,12.8,12.8,98,0.09,,,0.09,VWS V13.01,2013-04-11 07:21:00,
2013-04-11 02:22:00,54.0,53.4,29.06,SW,225,17.0,17.0,98,0.09,,,0.09,VWS V13.01,2013-04-11 07:22:00,
2013-04-11 02:23:00,54.0,53.4,29.06,SW,225,10.1,17.0,98,0.09,,,0.09,VWS V13.01,2013-04-11 07:23:00,
2013-04-11 02:24:00,53.8,53.2,29.06,SW,225,8.3,17.5,98,0.09,,,0.09,VWS V13.01,2013-04-11 07:24:00,
2013-04-11 02:25:00,53.6,53.0,29.06,West,270,10.5,10.5,98,0.09,,,0.09,VWS V13.01,2013-04-11 07:25:00,
2013-04-11 02:26:00,53.6,53.0,29.06,SW,225,10.5,11.0,98,0.09,,,0.09,VWS V13.01,2013-04-11 07:26:00,
2013-04-11 02:27:00,53.6,53.0,29.06,SW,225,8.7,15.9,98,0.09,,,0.09,VWS V13.01,2013-04-11 07:27:00,
2013-04-11 02:28:00,53.6,53.0,29.06,SW,225,13.2,13.6,98,0.09,,,0.09,VWS V13.01,2013-04-11 07:28:00,
2013-04-11 02:29:00,53.4,52.9,29.06,West,270,9.6,15.4,98,0.09,,,0.09,VWS V13.01,2013-04-11 07:29:00,
2013-04-11 02:30:00,53.4,52.9,29.06,SW,225,10.1,14.5,98,0.09,,,0.09,VWS V13.01,2013-04-11 07:30:00,
2013-04-11 02:31:00,53.4,52.9,29.06,SW,225,14.5,14.5,98,0.09,,,0.09,VWS V13.01,2013-04-11 07:31:00,
2013-04-11 02:32:00,53.4,52.9,29.06,South,180,13.6,14.5,98,0.05,,,0.09,VWS V13.01,2013-04-11 07:32:00,
2013-04-11 02:33:00,53.2,52.7,29.06,SW,225,13.6,13.6,98,0.05,,,0.09,VWS V13.01,2013-04-11 07:33:00,
2013-04-11 02:34:00,53.2,52.7,29.06,West,270,8.3,13.6,98,0.05,,,0.09,VWS V13.01,2013-04-11 07:34:00,
2013-04-11 02:35:00,53.2,52.7,29.06,West,270,10.1,11.0,98,0.05,,,0.09,VWS V13.01,2013-04-11 07:35:00,
2013-04-11 02:36:00,53.2,52.7,29.06,SW,225,13.2,13.2,98,0.05,,,0.09,VWS V13.01,2013-04-11 07:36:00,
2013-04-11 02:37:00,53.2,52.7,29.06,SW,225,10.1,13.2,98,0.05,,,0.09,VWS V13.01,2013-04-11 07:37:00,
2013-04-11 02:38:00,53.2,52.7,29.06,West,270,13.2,13.2,98,0.00,,,0.09,VWS V13.01,2013-04-11 07:38:00,
2013-04-11 02:39:00,53.2,52.7,29.06,SW,225,13.6,13.6,98,0.00,,,0.09,VWS V13.01,2013-04-11 07:39:00,
2013-04-11 02:40:00,53.2,52.7,29.06,SW,225,8.1,13.6,98,0.00,,,0.09,VWS V13.01,2013-04-11 07:40:00,
2013-04-11 02:41:00,53.2,52.7,29.06,West,270,9.2,10.5,98,0.00,,,0.09,VWS V13.01,2013-04-11 07:41:00,
2013-04-11 02:42:00,53.2,52.7,29.06,West,270,10.1,10.1,98,0.00,,,0.09,VWS V13.01,2013-04-11 07:42:00,
2013-04-11 02:43:00,53.1,52.5,29.06,West,270,10.5,12.3,98,0.00,,,0.09,VWS V13.01,2013-04-11 07:43:00,
2013-04-11 02:44:00,53.1,52.5,29.06,West,270,13.2,13.2,98,0.00,,,0.09,VWS V13.01,2013-04-11 07:44:00,
2013-04-11 02:45:00,53.1,52.5,29.06,SW,225,12.8,13.2,98,0.00,,,0.09,VWS V13.01,2013-04-11 07:45:00,
2013-04-11 02:46:00,52.9,52.3,29.06,SW,225,8.7,12.8,98,0.00,,,0.09,VWS V13.01,2013-04-11 07:46:00,
2013-04-11 02:47:00,53.1,52.5,29.06,SW,225,5.8,8.7,98,0.00,,,0.09,VWS V13.01,2013-04-11 07:47:00,
2013-04-11 02:48:00,52.9,52.3,29.06,SW,225,8.3,14.5,98,0.00,,,0.09,VWS V13.01,2013-04-11 07:48:00,
2013-04-11 02:49:00,52.9,52.3,29.06,West,270,15.0,15.0,98,0.00,,,0.09,VWS V13.01,2013-04-11 07:49:00,
2013-04-11 02:50:00,52.7,52.2,29.06,SW,225,10.5,15.0,98,0.00,,,0.09,VWS V13.01,2013-04-11 07:50:00,
2013-04-11 02:51:00,52.7,52.2,29.06,SW,225,3.6,11.0,98,0.00,,,0.09,VWS V13.01,2013-04-11 07:51:00,
2013-04-11 02:52:00,52.7,52.2,29.06,West,270,7.6,13.2,98,0.00,,,0.09,VWS V13.01,2013-04-11 07:52:00,
2013-04-11 02:53:00,52.7,52.2,29.06,West,270,13.2,13.2,98,0.00,,,0.09,VWS V13.01,2013-04-11 07:53:00,
2013-04-11 02:54:00,52.7,52.2,29.06,SW,225,10.5,13.2,98,0.00,,,0.09,VWS V13.01,2013-04-11 07:54:00,
2013-04-11 02:55:00,52.7,52.2,29.06,West,270,8.7,10.5,98,0.00,,,0.09,VWS V13.01,2013-04-11 07:55:00,
2013-04-11 02:56:00,52.7,52.2,29.06,West,270,10.5,11.0,98,0.00,,,0.09,VWS V13.01,2013-04-11 07:56:00,
2013-04-11 02:57:00,52.7,52.2,29.06,West,270,11.0,11.0,98,0.00,,,0.09,VWS V13.01,2013-04-11 07:57:00,
2013-04-11 02:58:00,52.3,51.8,29.06,West,270,6.3,12.8,98,0.00,,,0.09,VWS V13.01,2013-04-11 07:58:00,
2013-04-11 02:59:00,52.3,51.8,29.06,West,270,8.1,12.8,98,0.00,,,0.09,VWS V13.01,2013-04-11 07:59:00,
2013-04-11 03:00:00,52.3,51.8,29.06,West,270,8.7,11.0,98,0.00,,,0.09,VWS V13.01,2013-04-11 08:00:00,
2013-04-11 03:01:00,52.2,51.6,29.06,West,270,8.3,9.6,98,0.00,,,0.09,VWS V13.01,2013-04-11 08:01:00,
2013-04-11 03:02:00,52.2,51.6,29.06,West,270,10.1,12.3,98,0.00,,,0.09,VWS V13.01,2013-04-11 08:02:00,
2013-04-11 03:03:00,52.2,51.6,29.06,West,270,13.2,13.2,98,0.00,,,0.09,VWS V13.01,2013-04-11 08:03:00,
2013-04-11 03:04:00,52.0,51.4,29.06,West,270,8.1,13.2,98,0.00,,,0.09,VWS V13.01,2013-04-11 08:04:00,
2013-04-11 03:05:00,51.8,51.3,29.06,SW,225,8.1,11.0,98,0.00,,,0.09,VWS V13.01,2013-04-11 08:05:00,
2013-04-11 03:06:00,51.8,51.3,29.06,SW,225,8.1,10.5,98,0.00,,,0.09,VWS V13.01,2013-04-11 08:06:00,
2013-04-11 03:07:00,51.8,51.3,29.06,West,270,10.5,14.1,98,0.00,,,0.09,VWS V13.01,2013-04-11 08:07:00,
2013-04-11 03:08:00,51.8,51.3,29.06,West,270,8.7,10.5,98,0.00,,,0.09,VWS V13.01,2013-04-11 08:08:00,
2013-04-11 03:09:00,51.8,51.3,29.06,SW,225,7.6,12.3,98,0.00,,,0.09,VWS V13.01,2013-04-11 08:09:00,
2013-04-11 03:10:00,51.6,51.1,29.06,West,270,8.1,9.6,98,0.00,,,0.09,VWS V13.01,2013-04-11 08:10:00,
2013-04-11 03:11:00,51.6,51.1,29.06,SW,225,9.2,12.3,98,0.00,,,0.09,VWS V13.01,2013-04-11 08:11:00,
2013-04-11 03:12:00,51.6,51.1,29.06,West,270,7.6,11.9,98,0.00,,,0.09,VWS V13.01,2013-04-11 08:12:00,
2013-04-11 03:13:00,51.6,51.1,29.06,SW,225,10.5,11.0,98,0.00,,,0.09,VWS V13.01,2013-04-11 08:13:00,
2013-04-11 03:14:00,51.6,51.1,29.06,SW,225,7.2,11.0,98,0.00,,,0.09,VWS V13.01,2013-04-11 08:14:00,
2013-04-11 03:15:00,51.6,51.1,29.06,SW,225,8.1,8.1,98,0.00,,,0.09,VWS V13.01,2013-04-11 08:15:00,
2013-04-11 03:16:00,51.8,51.3,29.06,SW,225,6.3,9.6,98,0.00,,,0.09,VWS V13.01,2013-04-11 08:16:00,
2013-04-11 03:17:00,51.8,51.3,29.06,West,270,12.8,12.8,98,0.00,,,0.09,VWS V13.01,2013-04-11 08:17:00,